Regional Weather Roundup
Issued by NWS

Home | Current Version | Previous Version | Graphics & Text | Print | Product List | Glossary On
Versions: 1 2 3 4 5 6 7 8 9 10 11 12 13 14 15 16 17 18 19 20 21 22 23 24 25 26 27 28 29 30 31 32 33 34 35 36 37 38 39 40 41 42 43 44 45 46 47 48 49 50
000
ASUS45 KSLC 161610
RWRUT

UTAH REGIONAL WEATHER ROUNDUP
NATIONAL WEATHER SERVICE SALT LAKE CITY UT
900 AM MST TUE JAN 16 2018

UTZ001>011-023>025-161700-

NORTHERN UTAH

CITY           SKY/WX    TMP DP  RH WIND       PRES   REMARKS
BRIGHAM CITY   CLEAR     31  22  72 NW6       30.34S WCI  25
DUGWAY         MOSUNNY   26  23  90 S1        30.31S
HILL AFB       SUNNY     31  17  55 E20G26    30.32R WCI  19
LOGAN          CLEAR     25  18  74 N3        30.36S
OGDEN          SUNNY     34  19  54 SW3       30.32R
SALT LAKE CITY MOSUNNY   38  23  55 SW3       30.33R
TOOELE VALLEY  SUNNY     32  28  86 SE6       30.32S WCI  26
WENDOVER       PTCLDY    26  20  77 NE3       30.33R
HEBER CITY       N/A     23  18  80 CALM      30.38S
WEST JORDAN    SUNNY     31  27  84 SW5       30.33S WCI  26

$$

UTZ011>015-024>027-161700-

CENTRAL/NORTHEAST UTAH

CITY           SKY/WX    TMP DP  RH WIND       PRES   REMARKS
PROVO AIRPORT  SUNNY     34  25  69 W8        30.36R WCI  27
MOAB/CANYONLAN MOSUNNY   30  16  56 CALM      30.41R
DELTA          MOSUNNY   27  27 100 CALM      30.32R
PRICE          SUNNY     30  19  63 E5        30.38R WCI  25
ROOSEVELT      SUNNY     19  12  73 CALM      30.50R
VERNAL         SUNNY     19  10  68 CALM      30.47S

$$

UTZ013>016-019>022-027-161700-

SOUTHERN UTAH

CITY           SKY/WX    TMP DP  RH WIND       PRES   REMARKS
BRYCE CANYON   PTSUNNY   23  20  88 W3        30.35R
CEDAR CITY     MOSUNNY   28  27  96 CALM      30.28S
MILFORD        PTSUNNY   27  26  96 SW5       30.30S WCI  22
ST GEORGE      SUNNY     40  35  83 NE3       30.29R
HANKSVILLE     MOSUNNY   23  18  80 CALM      30.45S
KANAB          SUNNY     41  23  48 N10       30.36S
BLANDING         N/A     28  14  54 CALM      30.45R

$$

REGIONAL REPORTS     COLORADO/ARIZONA

CITY           SKY/WX    TMP DP  RH WIND       PRES   REMARKS
CRAIG, CO      SUNNY      1  -4  79 CALM      30.46R
GRAND JUNCTION SUNNY     26  14  60 S6        30.44R WCI  19
RIFLE, CO      SUNNY     20  14  77 CALM      30.46F
MONTROSE, CO   SUNNY     21  14  74 SE6       30.46R WCI  13
CORTEZ, CO     SUNNY     23  18  81 CALM      30.38R
COLORADO CITY    N/A     45  27  49 NE8G18    30.32R
PAGE, AZ       PTSUNNY   40  29  64 CALM      30.37R
GRAND CANYON   MOSUNNY   38  20  48 E9        30.32R WCI  31
KINGMAN, AZ    SUNNY     48  33  56 CALM      30.22R
FLAGSTAFF, AZ  MOSUNNY   34  23  64 CALM      30.33R

$$

REGIONAL REPORTS    NEVADA/IDAHO/WYOMING

CITY           SKY/WX    TMP DP  RH WIND       PRES   REMARKS
LAS VEGAS, NV  PTSUNNY   54  39  57 CALM      30.20S
ELY, NY        CLOUDY    27  21  78 SE7       30.28R WCI  19
ELKO, NV       CLOUDY    31  26  82 CALM      30.27R
POCATELLO, ID  CLEAR     25  23  92 CALM      30.32S
BURLEY, ID     CLEAR     31  24  75 NE16G23   30.24F WCI  20
EVANSTON, WY   SUNNY     14  10  84 E6        30.36S WCI   5
ROCK SPRINGS,  SUNNY     10   2  69 NE6       30.39R WCI   0

$$



USA.gov is the U.S. government's official web portal to all federal, state and local government web resources and services.